Location: Killam
(52.7910°N, 111.8608°W)
Time: 05:49:54
(UTC+00:00)

Gurwin Techsat 1B - Pass Details

Date: 23 March 2026
Orbit: 809 x 812 km, 99.0° (Epoch: 15 April)

Event Time Altitude Azimuth Distance (km) Brightness Sun altitude
Rises 12:39:22 0° 17° (NNE) 3,343 12.2 -7.3°
Reaches altitude 10° 12:41:45 10° 20° (NNE) 2,407 11.5 -6.9°
Maximum altitude 12:47:03 69° 104° (ESE) 868 9.1 -6.1°
Drops below altitude 10° 12:52:19 10° 188° (S) 2,390 10.9 -5.4°
Sets 12:54:40 0° 191° (S) 3,317 11.6 -5.0°
